Total_Precipitation_Accumulation
0.79 0.72 0.62 0.64 0.60 0.64 0.70 0.75 0.77 0.79 0.85 0.82 0.80 0.82 0.84 0.81 0.74 0.73 0.88 1.08 1.50 1.75 1.66 1.51 1.31 1.31 1.30 1.22 1.29 1.47 1.64 1.74 1.70 1.70 1.80 1.91 1.79 1.63 1.55 1.44 1.46 1.42 1.29
0.72 0.75 0.71 0.73 0.73 0.71 0.71 0.71 0.70 0.83 0.88 0.87 0.87 0.87 0.86 0.76 0.75 0.84 0.99 1.04 1.06 1.34 1.79 1.85 1.69 1.54 1.45 1.30 1.28 1.40 1.54 1.60 1.54 1.59 1.67 1.71 1.65 1.43 1.32 1.41 1.58 1.39 1.17
0.69 0.74 0.77 0.79 0.80 0.81 0.79 0.81 0.82 0.89 0.88 0.93 0.96 0.88 0.83 0.78 0.78 0.85 0.91 0.98 0.81 0.81 1.21 1.68 1.86 1.74 1.70 1.61 1.42 1.42 1.49 1.60 1.47 1.57 1.62 1.64 1.49 1.36 1.23 1.38 1.54 1.42 1.20
0.71 0.80 0.82 0.87 0.92 0.84 0.81 0.89 0.95 1.01 1.00 1.05 1.09 0.95 0.79 0.86 0.83 0.84 0.96 0.97 0.91 0.79 0.87 1.05 1.29 1.45 1.76 1.90 1.72 1.66 1.59 1.52 1.40 1.52 1.58 1.51 1.38 1.33 1.25 1.36 1.40 1.38 1.33
0.89 0.97 1.02 1.04 1.06 1.08 1.01 0.91 0.95 1.04 1.15 1.20 1.09 0.99 0.87 0.87 0.89 0.89 1.07 1.07 0.96 0.87 0.93 0.89 0.92 1.01 1.26 1.67 1.82 1.85 1.69 1.48 1.36 1.41 1.44 1.31 1.31 1.28 1.16 1.23 1.30 1.26 1.28
1.17 1.28 1.26 1.21 1.27 1.38 1.41 1.21 1.27 1.22 1.19 1.28 1.14 1.06 1.03 0.97 0.97 1.03 1.08 1.13 1.14 1.00 1.06 1.03 0.95 0.75 0.85 1.17 1.48 1.79 1.85 1.70 1.51 1.46 1.52 1.30 1.21 1.23 1.06 1.04 1.13 1.20 1.17
1.50 1.67 1.64 1.62 1.63 1.63 1.60 1.55 1.71 1.64 1.38 1.30 1.48 1.45 1.31 1.15 1.10 1.07 1.09 1.21 1.29 1.27 1.34 1.30 1.18 0.96 0.79 0.77 0.90 1.41 1.74 1.89 1.83 1.66 1.73 1.60 1.28 1.16 1.09 1.04 1.08 1.14 1.19
1.73 1.77 1.98 2.09 2.06 2.17 2.15 1.98 2.13 2.13 1.76 1.53 1.78 2.07 1.79 1.58 1.20 1.08 1.14 1.15 1.25 1.38 1.46 1.37 1.23 1.08 1.01 0.93 0.71 0.87 1.16 1.63 1.90 1.78 1.93 2.00 1.54 1.22 1.09 1.07 1.10 1.17 1.30
1.89 1.90 2.02 2.20 2.22 2.29 2.39 2.47 2.42 2.52 2.31 1.92 1.80 2.09 1.98 1.84 1.64 1.24 1.15 1.24 1.38 1.46 1.51 1.51 1.38 1.15 1.10 1.10 0.87 0.70 0.80 1.02 1.51 1.76 1.95 2.23 1.86 1.39 1.12 1.09 1.11 1.11 1.24
2.07 2.15 2.17 2.28 2.31 2.33 2.43 2.54 2.51 2.65 2.72 2.33 2.04 1.83 1.66 1.67 1.78 1.55 1.30 1.27 1.44 1.48 1.49 1.53 1.57 1.41 1.24 1.23 1.08 0.85 0.84 0.89 1.15 1.66 1.96 2.25 2.16 1.68 1.29 1.21 1.22 1.13 1.17
2.18 2.22 2.29 2.45 2.45 2.43 2.40 2.61 2.66 2.76 2.69 2.61 2.47 2.30 2.14 1.89 1.53 1.62 1.65 1.50 1.42 1.33 1.40 1.52 1.67 1.61 1.45 1.38 1.42 1.09 0.86 0.84 0.93 1.43 1.82 2.27 2.37 2.04 1.75 1.60 1.47 1.37 1.22
2.22 2.12 2.04 2.18 2.24 2.29 2.27 2.45 2.63 2.77 2.75 2.78 2.70 2.42 2.36 2.22 1.86 1.79 1.67 1.57 1.58 1.40 1.34 1.41 1.46 1.44 1.46 1.44 1.36 1.32 1.03 0.88 0.89 1.17 1.55 1.91 2.37 2.33 2.21 2.11 1.87 1.74 1.57
2.05 2.09 1.97 1.96 1.99 1.95 1.99 2.11 2.18 2.26 2.40 2.56 2.48 2.27 2.23 2.07 2.04 2.05 1.95 1.72 1.56 1.34 1.36 1.34 1.32 1.29 1.27 1.31 1.39 1.48 1.13 0.91 0.87 0.98 1.27 1.53 1.89 2.21 2.36 2.26 2.11 2.06 1.99
1.73 1.82 1.82 1.76 1.80 1.84 1.85 1.93 1.95 1.96 1.99 2.07 2.07 2.16 2.21 2.09 2.01 1.94 1.97 2.13 1.89 1.64 1.48 1.34 1.33 1.33 1.26 1.24 1.41 1.49 1.16 0.99 0.86 0.83 0.93 1.18 1.49 1.87 2.09 2.12 2.16 2.23 2.18
1.29 1.35 1.45 1.52 1.61 1.66 1.72 1.87 1.94 1.93 1.89 1.86 1.97 2.04 2.00 1.99 1.96 1.85 1.83 1.98 2.07 1.91 1.76 1.58 1.45 1.37 1.37 1.30 1.40 1.24 1.17 1.09 0.92 0.83 0.79 0.83 1.02 1.33 1.54 1.75 1.91 1.87 1.90
0.95 1.01 1.12 1.28 1.51 1.63 1.67 1.75 1.80 1.88 1.92 1.88 1.96 2.07 2.10 2.08 2.10 2.02 1.90 1.89 1.84 1.87 1.79 1.57 1.39 1.30 1.43 1.31 1.41 1.23 1.17 1.30 1.09 0.91 0.84 0.81 0.81 0.88 1.03 1.23 1.40 1.46 1.41
0.80 0.92 0.96 1.10 1.25 1.44 1.62 1.77 1.78 1.78 1.83 1.82 1.77 1.87 1.98 2.08 2.20 2.21 2.20 2.09 1.93 1.88 1.80 1.64 1.43 1.31 1.46 1.50 1.44 1.38 1.25 1.18 1.14 1.04 0.95 0.92 0.87 0.77 0.85 0.95 1.11 1.21 1.20
0.63 0.73 0.86 1.06 1.17 1.25 1.30 1.39 1.47 1.51 1.55 1.61 1.60 1.58 1.66 1.76 1.92 2.07 2.16 2.10 2.08 1.97 1.88 1.85 1.67 1.42 1.32 1.40 1.47 1.56 1.47 1.25 1.19 1.23 1.15 1.05 0.99 0.86 0.77 0.80 0.89 0.97 1.00
0.63 0.68 0.81 0.96 1.02 1.06 1.10 1.13 1.23 1.32 1.33 1.32 1.37 1.35 1.37 1.46 1.60 1.74 1.83 1.90 2.01 2.05 2.05 1.95 1.87 1.69 1.44 1.45 1.53 1.56 1.58 1.65 1.40 1.29 1.29 1.22 1.14 1.05 0.98 0.89 0.87 0.89 0.86
0.67 0.72 0.87 0.95 0.96 0.91 1.00 1.04 1.09 1.13 1.10 1.05 1.09 1.10 1.15 1.19 1.28 1.40 1.55 1.76 1.95 2.06 2.13 2.12 2.02 1.80 1.63 1.59 1.57 1.58 1.66 1.75 1.72 1.49 1.37 1.29 1.32 1.28 1.14 1.05 0.98 0.95 0.95
0.68 0.73 0.79 0.89 0.92 0.90 0.93 1.00 0.99 0.94 0.93 0.93 0.88 0.79 0.81 0.88 0.90 0.98 1.03 1.32 1.58 1.81 1.94 2.02 2.00 1.85 1.64 1.53 1.41 1.45 1.59 1.76 1.84 1.79 1.70 1.43 1.35 1.31 1.25 1.20 1.11 1.03 0.99
0.57 0.61 0.66 0.81 0.92 0.83 0.94 0.94 0.86 0.79 0.76 0.81 0.78 0.70 0.69 0.72 0.64 0.61 0.65 0.87 1.17 1.38 1.57 1.75 1.81 1.69 1.55 1.47 1.51 1.51 1.52 1.58 1.61 1.54 1.55 1.56 1.48 1.38 1.30 1.24 1.24 1.22 1.14
0.49 0.54 0.58 0.74 0.84 0.92 0.86 0.71 0.75 0.75 0.75 0.78 0.80 0.82 0.75 0.70 0.77 0.69 0.63 0.70 0.79 0.91 1.07 1.33 1.56 1.55 1.64 1.57 1.48 1.43 1.44 1.48 1.49 1.54 1.55 1.56 1.46 1.36 1.24 1.19 1.32 1.26 1.27
0.46 0.51 0.57 0.60 0.68 0.81 0.75 0.60 0.65 0.64 0.75 0.82 0.85 0.94 0.95 0.88 0.86 0.94 0.89 0.89 0.87 0.80 0.85 0.78 1.00 1.38 1.52 1.58 1.53 1.56 1.65 1.58 1.46 1.49 1.52 1.54 1.46 1.34 1.20 1.10 1.20 1.12 1.07
0.50 0.52 0.56 0.59 0.65 0.69 0.65 0.58 0.62 0.68 0.82 0.84 0.79 0.91 0.95 0.89 0.93 1.00 1.12 1.18 1.10 0.95 1.06 1.07 0.98 1.09 1.23 1.29 1.40 1.50 1.57 1.50 1.45 1.38 1.27 1.25 1.20 1.23 1.28 1.19 1.14 1.18 1.09
0.48 0.50 0.49 0.49 0.53 0.55 0.60 0.52 0.64 0.74 0.80 0.81 0.82 0.87 1.02 0.95 0.92 0.90 0.99 1.13 1.12 0.99 0.87 0.90 0.87 0.77 0.71 0.82 1.02 1.19 1.47 1.59 1.53 1.43 1.24 1.17 1.19 1.18 1.21 1.14 1.05 1.07 1.05